QPF
0.10 0.07 0.07 0.06 0.05 0.03 0.02 0.02 0.01 0.01 0.07 0.20 0.11 0.06 0.09 0.04 0.04 0.01 0.00 0.01 0.01 0.00 0.00 0.00 0.00 0.00 0.00 0.00 0.00 0.00 0.00 0.00 0.00 0.00 0.00 0.00 0.00 0.00 0.00 0.00 0.00 0.00
0.11 0.11 0.13 0.09 0.07 0.04 0.02 0.01 0.01 0.04 0.10 0.14 0.28 0.13 0.13 0.02 0.00 0.01 0.00 0.01 0.00 0.00 0.00 0.00 0.00 0.00 0.00 0.00 0.00 0.00 0.00 0.00 0.00 0.00 0.00 0.00 0.00 0.00 0.00 0.00 0.00 0.00
0.26 0.10 0.12 0.15 0.10 0.06 0.04 0.03 0.02 0.03 0.15 0.19 0.18 0.21 0.04 0.01 0.00 0.00 0.00 0.00 0.00 0.00 0.00 0.00 0.00 0.00 0.00 0.00 0.00 0.00 0.00 0.00 0.00 0.00 0.00 0.00 0.00 0.00 0.00 0.00 0.00 0.00
0.20 0.13 0.09 0.17 0.17 0.10 0.05 0.07 0.04 0.03 0.15 0.18 0.24 0.22 0.20 0.02 0.00 0.00 0.00 0.00 0.00 0.00 0.00 0.00 0.00 0.00 0.00 0.00 0.00 0.00 0.00 0.00 0.00 0.00 0.00 0.00 0.00 0.00 0.00 0.00 0.00 0.00
0.34 0.22 0.20 0.19 0.27 0.38 0.40 0.21 0.10 0.12 0.18 0.30 0.54 0.52 0.21 0.16 0.02 0.00 0.00 0.00 0.00 0.00 0.00 0.00 0.00 0.00 0.00 0.00 0.00 0.00 0.00 0.00 0.00 0.00 0.00 0.00 0.00 0.00 0.00 0.00 0.00 0.00
0.56 0.43 0.56 0.16 0.51 0.38 0.38 0.22 0.26 0.09 0.04 0.57 0.39 0.22 0.07 0.17 0.09 0.00 0.00 0.00 0.00 0.00 0.00 0.00 0.00 0.00 0.00 0.00 0.00 0.00 0.00 0.00 0.00 0.00 0.00 0.00 0.00 0.00 0.00 0.00 0.00 0.00
0.69 0.33 0.31 0.08 0.16 0.32 0.36 0.32 0.32 0.36 0.65 0.58 0.23 0.11 0.22 0.18 0.04 0.00 0.00 0.00 0.00 0.00 0.00 0.00 0.00 0.00 0.00 0.00 0.00 0.00 0.00 0.00 0.00 0.00 0.00 0.00 0.00 0.00 0.00 0.00 0.00 0.00
0.54 0.39 0.19 0.15 0.17 0.27 0.39 0.41 0.27 0.32 0.39 0.26 0.33 0.27 0.15 0.12 0.01 0.00 0.00 0.00 0.00 0.00 0.00 0.00 0.00 0.00 0.00 0.00 0.00 0.00 0.00 0.00 0.00 0.00 0.00 0.00 0.00 0.00 0.00 0.00 0.00 0.00
0.47 0.51 0.51 0.39 0.21 0.17 0.37 0.31 0.28 0.39 0.31 0.22 0.19 0.13 0.20 0.21 0.05 0.00 0.00 0.00 0.00 0.00 0.00 0.00 0.00 0.00 0.00 0.00 0.00 0.00 0.00 0.00 0.00 0.00 0.00 0.00 0.00 0.00 0.00 0.00 0.00 0.00
0.56 0.65 0.58 0.61 0.32 0.26 0.27 0.19 0.24 0.25 0.07 0.11 0.26 0.11 0.19 0.11 0.07 0.00 0.00 0.00 0.00 0.00 0.00 0.00 0.00 0.00 0.00 0.00 0.00 0.00 0.00 0.00 0.00 0.00 0.00 0.00 0.00 0.00 0.00 0.00 0.00 0.00
0.90 0.51 0.41 0.35 0.23 0.11 0.07 0.09 0.16 0.22 0.07 0.48 0.33 0.14 0.31 0.10 0.02 0.00 0.00 0.00 0.00 0.00 0.00 0.00 0.00 0.00 0.00 0.00 0.00 0.00 0.00 0.00 0.00 0.00 0.00 0.00 0.00 0.00 0.00 0.00 0.00 0.00
0.14 0.17 0.15 0.19 0.30 0.16 0.07 0.10 0.05 0.20 0.10 0.08 0.20 0.26 0.18 0.08 0.01 0.00 0.00 0.00 0.00 0.00 0.00 0.00 0.00 0.00 0.00 0.00 0.00 0.00 0.00 0.00 0.00 0.00 0.00 0.00 0.00 0.00 0.00 0.00 0.00 0.00
0.12 0.14 0.11 0.08 0.07 0.05 0.05 0.21 0.63 0.45 0.41 0.32 0.20 0.20 0.12 0.04 0.00 0.00 0.00 0.00 0.00 0.00 0.00 0.00 0.00 0.00 0.00 0.00 0.00 0.00 0.00 0.00 0.00 0.00 0.00 0.00 0.00 0.00 0.00 0.00 0.00 0.00
0.05 0.06 0.06 0.05 0.05 0.05 0.04 0.52 0.45 0.10 0.15 0.20 0.20 0.08 0.03 0.00 0.00 0.00 0.00 0.00 0.00 0.00 0.00 0.00 0.00 0.00 0.00 0.00 0.00 0.00 0.00 0.00 0.00 0.00 0.00 0.00 0.00 0.00 0.00 0.00 0.00 0.00
0.01 0.02 0.02 0.02 0.02 0.02 0.02 0.19 0.08 0.03 0.02 0.02 0.08 0.01 0.00 0.00 0.00 0.00 0.00 0.00 0.00 0.00 0.00 0.00 0.00 0.00 0.00 0.00 0.00 0.00 0.00 0.00 0.00 0.00 0.00 0.00 0.00 0.00 0.00 0.00 0.00 0.00
0.00 0.00 0.00 0.01 0.00 0.00 0.03 0.03 0.05 0.02 0.02 0.01 0.00 0.00 0.00 0.00 0.00 0.00 0.00 0.00 0.00 0.00 0.00 0.00 0.00 0.00 0.00 0.00 0.00 0.00 0.00 0.00 0.00 0.00 0.00 0.00 0.00 0.00 0.00 0.00 0.00 0.00
0.00 0.00 0.00 0.00 0.00 0.00 0.01 0.00 0.02 0.01 0.00 0.00 0.00 0.00 0.00 0.00 0.00 0.00 0.00 0.00 0.00 0.00 0.00 0.01 0.01 0.00 0.00 0.00 0.00 0.00 0.00 0.00 0.00 0.00 0.00 0.00 0.00 0.00 0.00 0.00 0.00 0.00
0.00 0.00 0.00 0.00 0.00 0.00 0.00 0.00 0.00 0.01 0.00 0.00 0.00 0.00 0.00 0.00 0.00 0.00 0.00 0.00 0.00 0.00 0.00 0.00 0.00 0.00 0.00 0.00 0.00 0.00 0.00 0.00 0.00 0.00 0.00 0.00 0.00 0.00 0.00 0.00 0.00 0.00
0.00 0.00 0.00 0.00 0.00 0.00 0.00 0.00 0.00 0.00 0.00 0.00 0.00 0.00 0.00 0.00 0.00 0.00 0.00 0.00 0.00 0.00 0.00 0.00 0.00 0.00 0.00 0.00 0.00 0.00 0.00 0.00 0.00 0.00 0.00 0.00 0.00 0.00 0.00 0.00 0.00 0.00
0.00 0.00 0.00 0.00 0.00 0.00 0.00 0.00 0.00 0.00 0.00 0.00 0.00 0.00 0.00 0.00 0.00 0.00 0.00 0.00 0.00 0.00 0.00 0.00 0.00 0.00 0.00 0.00 0.00 0.00 0.00 0.00 0.00 0.00 0.00 0.00 0.00 0.00 0.00 0.00 0.00 0.00
0.00 0.00 0.00 0.00 0.00 0.00 0.00 0.00 0.00 0.00 0.00 0.00 0.00 0.00 0.00 0.00 0.00 0.00 0.00 0.00 0.00 0.00 0.00 0.00 0.00 0.00 0.00 0.00 0.00 0.00 0.00 0.00 0.00 0.00 0.00 0.00 0.00 0.00 0.00 0.00 0.00 0.00
0.00 0.00 0.00 0.00 0.00 0.00 0.00 0.00 0.00 0.00 0.00 0.00 0.00 0.00 0.00 0.00 0.00 0.00 0.00 0.00 0.00 0.00 0.00 0.00 0.00 0.00 0.00 0.00 0.00 0.00 0.00 0.00 0.00 0.00 0.00 0.00 0.00 0.00 0.00 0.00 0.00 0.00
0.00 0.00 0.00 0.00 0.00 0.00 0.00 0.00 0.00 0.00 0.00 0.00 0.00 0.00 0.00 0.00 0.00 0.00 0.00 0.00 0.00 0.00 0.00 0.00 0.00 0.00 0.00 0.00 0.00 0.00 0.00 0.00 0.00 0.00 0.00 0.00 0.00 0.00 0.00 0.00 0.00 0.00
0.00 0.00 0.00 0.00 0.00 0.00 0.00 0.00 0.00 0.00 0.00 0.00 0.00 0.00 0.00 0.00 0.00 0.00 0.00 0.00 0.00 0.00 0.00 0.00 0.00 0.00 0.00 0.00 0.00 0.00 0.00 0.00 0.00 0.00 0.00 0.00 0.00 0.00 0.00 0.00 0.00 0.00
0.00 0.00 0.00 0.01 0.02 0.00 0.00 0.01 0.00 0.00 0.00 0.00 0.00 0.00 0.00 0.00 0.00 0.02 0.02 0.03 0.02 0.00 0.00 0.00 0.00 0.00 0.00 0.00 0.00 0.00 0.00 0.00 0.00 0.00 0.00 0.00 0.00 0.00 0.00 0.00 0.00 0.00
0.01 0.01 0.01 0.06 0.03 0.01 0.02 0.07 0.02 0.00 0.00 0.00 0.00 0.00 0.00 0.00 0.01 0.00 0.00 0.00 0.00 0.00 0.00 0.00 0.00 0.00 0.00 0.00 0.00 0.00 0.00 0.00 0.00 0.00 0.00 0.00 0.00 0.00 0.00 0.00 0.00 0.00
MSLP
1012.38 1012.78 1013.34 1013.54 1013.58 1013.62 1013.86 1014.02 1014.22 1014.50 1014.78 1015.02 1015.30 1015.54 1015.82 1016.06 1016.10 1015.98 1016.14 1016.42 1016.74 1017.02 1017.18 1017.38 1017.58 1017.82 1018.06 1018.30 1018.46 1018.58 1018.90 1019.10 1019.14 1019.22 1019.30 1019.34 1019.42 1019.50 1019.62 1019.82 1019.74 1019.62
1012.98 1013.18 1013.46 1013.50 1013.54 1013.66 1013.74 1013.86 1014.06 1014.38 1014.86 1015.22 1015.58 1015.78 1016.10 1016.06 1016.06 1016.06 1016.26 1016.58 1016.82 1017.06 1017.22 1017.46 1017.62 1017.90 1018.14 1018.34 1018.62 1018.82 1019.06 1019.18 1019.34 1019.26 1019.38 1019.46 1019.34 1019.62 1019.74 1019.78 1019.82 1019.74
1013.78 1013.70 1013.78 1013.74 1013.74 1013.86 1013.98 1014.02 1014.06 1014.26 1014.74 1015.22 1015.54 1015.98 1016.14 1016.02 1015.94 1016.06 1016.26 1016.50 1016.86 1017.10 1017.34 1017.50 1017.66 1017.90 1018.18 1018.46 1018.78 1018.98 1019.10 1019.30 1019.38 1019.42 1019.46 1019.58 1019.66 1019.62 1019.78 1019.78 1019.94 1020.06
1013.62 1013.86 1013.90 1013.94 1013.94 1014.02 1014.10 1014.22 1014.26 1014.46 1014.90 1015.54 1015.98 1016.14 1016.14 1016.10 1015.90 1016.06 1016.30 1016.66 1016.90 1017.14 1017.30 1017.58 1017.90 1018.06 1018.34 1018.62 1018.86 1019.02 1019.14 1019.30 1019.50 1019.62 1019.50 1019.62 1019.66 1019.74 1019.82 1019.86 1019.98 1019.98
1013.62 1013.58 1013.94 1014.22 1014.14 1014.10 1014.10 1014.26 1014.50 1014.74 1015.42 1015.90 1016.18 1016.58 1016.94 1016.94 1016.34 1016.10 1016.42 1016.70 1017.02 1017.18 1017.38 1017.74 1017.94 1018.22 1018.46 1018.78 1018.94 1019.10 1019.26 1019.38 1019.50 1019.42 1019.58 1019.70 1019.74 1019.90 1019.90 1019.94 1020.06 1020.10
1012.98 1013.22 1013.74 1014.10 1014.26 1014.34 1014.38 1014.38 1014.54 1014.82 1015.46 1016.18 1016.46 1016.62 1016.66 1016.82 1016.46 1016.06 1016.42 1016.74 1016.78 1017.02 1017.58 1017.78 1018.02 1018.26 1018.50 1018.82 1019.02 1019.14 1019.34 1019.46 1019.58 1019.54 1019.66 1019.70 1019.82 1019.90 1020.02 1020.06 1020.14 1020.22
1012.82 1013.18 1013.46 1013.70 1014.10 1014.30 1014.54 1014.82 1014.94 1014.98 1015.38 1016.14 1016.50 1016.74 1016.54 1017.14 1016.54 1015.94 1016.30 1016.58 1016.62 1016.98 1017.38 1017.82 1018.10 1018.38 1018.54 1018.86 1019.06 1019.34 1019.42 1019.50 1019.54 1019.58 1019.62 1019.74 1019.86 1020.06 1020.06 1020.10 1020.14 1020.18
1011.90 1012.86 1013.34 1013.54 1013.82 1014.18 1014.50 1014.98 1015.18 1015.22 1015.42 1015.94 1016.58 1016.62 1016.42 1017.06 1016.66 1016.14 1016.26 1016.50 1016.82 1017.02 1017.46 1017.82 1018.02 1018.26 1018.54 1018.82 1019.18 1019.34 1019.50 1019.62 1019.66 1019.74 1019.74 1019.86 1019.90 1020.10 1020.22 1020.26 1020.26 1020.30
1011.98 1012.42 1012.90 1013.30 1013.62 1013.94 1014.26 1014.70 1014.86 1015.02 1015.54 1016.14 1016.46 1016.46 1016.66 1017.18 1016.62 1016.18 1016.34 1016.58 1016.82 1017.22 1017.58 1017.90 1018.06 1018.34 1018.62 1018.86 1019.14 1019.30 1019.46 1019.66 1019.66 1019.74 1019.90 1019.94 1019.98 1020.06 1020.10 1020.26 1020.42 1020.50
1012.38 1012.38 1012.46 1012.86 1013.38 1013.82 1014.26 1014.46 1014.34 1014.70 1015.42 1016.06 1016.10 1016.18 1016.82 1017.38 1016.70 1016.22 1016.42 1016.62 1016.86 1017.38 1017.66 1017.90 1018.18 1018.54 1018.78 1018.86 1018.98 1019.14 1019.34 1019.58 1019.62 1019.78 1019.94 1019.94 1020.02 1020.10 1020.26 1020.38 1020.54 1020.66
1012.18 1012.42 1012.50 1012.74 1013.26 1013.78 1014.26 1014.42 1014.50 1015.10 1015.58 1015.78 1015.90 1016.30 1016.90 1017.14 1016.66 1016.26 1016.54 1016.74 1017.02 1017.46 1017.70 1017.94 1018.18 1018.50 1018.70 1018.78 1018.94 1019.06 1019.26 1019.46 1019.54 1019.78 1019.98 1020.06 1020.22 1020.38 1020.42 1020.42 1020.58 1020.74
1012.14 1012.26 1012.38 1012.62 1013.10 1013.74 1014.30 1014.58 1014.90 1015.42 1015.78 1015.98 1016.10 1016.54 1017.06 1017.14 1016.54 1016.38 1016.62 1016.62 1016.94 1017.34 1017.66 1018.02 1018.22 1018.38 1018.54 1018.66 1018.86 1019.14 1019.30 1019.38 1019.50 1019.82 1020.06 1020.18 1020.26 1020.26 1020.38 1020.54 1020.66 1020.78
1012.14 1012.18 1012.14 1012.54 1013.06 1013.66 1014.10 1014.42 1014.78 1015.14 1015.50 1016.10 1016.58 1016.86 1017.06 1016.94 1016.54 1016.46 1016.58 1016.70 1017.02 1017.50 1017.86 1017.98 1018.14 1018.30 1018.42 1018.66 1018.94 1019.18 1019.34 1019.54 1019.74 1019.90 1020.10 1020.18 1020.30 1020.50 1020.62 1020.74 1020.82 1020.90
1012.06 1012.26 1012.42 1012.82 1013.26 1013.54 1013.66 1013.98 1014.34 1014.62 1015.18 1016.02 1016.70 1016.78 1016.78 1016.50 1016.42 1016.54 1016.74 1016.98 1017.34 1017.58 1017.78 1017.94 1018.26 1018.34 1018.50 1018.62 1018.70 1019.10 1019.38 1019.62 1019.82 1019.98 1020.10 1020.30 1020.54 1020.58 1020.70 1020.78 1020.86 1021.02
1012.02 1012.34 1012.74 1013.10 1013.38 1013.46 1013.66 1014.06 1014.38 1014.82 1015.38 1015.98 1016.42 1016.42 1016.42 1016.38 1016.42 1016.54 1017.02 1017.34 1017.58 1017.74 1017.98 1018.22 1018.34 1018.46 1018.50 1018.50 1018.70 1019.02 1019.34 1019.54 1019.66 1019.90 1020.14 1020.42 1020.62 1020.74 1020.78 1020.82 1020.98 1021.18
1011.94 1012.34 1012.78 1013.14 1013.38 1013.46 1013.70 1014.02 1014.34 1014.82 1015.38 1015.74 1015.94 1016.06 1016.26 1016.38 1016.38 1016.74 1017.06 1017.38 1017.78 1018.06 1018.22 1018.38 1018.42 1018.46 1018.74 1018.86 1018.90 1019.02 1019.34 1019.62 1019.90 1020.10 1020.26 1020.42 1020.66 1020.70 1020.82 1020.86 1021.14 1021.54
1011.94 1012.26 1012.62 1013.02 1013.26 1013.46 1013.70 1013.90 1014.26 1014.74 1015.18 1015.50 1015.74 1015.98 1016.26 1016.34 1016.66 1016.98 1017.22 1017.38 1017.78 1018.10 1018.34 1018.50 1018.58 1018.90 1019.18 1019.30 1019.38 1019.38 1019.42 1019.78 1019.94 1020.10 1020.18 1020.30 1020.46 1020.66 1020.82 1020.98 1021.18 1021.42
1011.62 1011.98 1012.42 1012.82 1013.14 1013.46 1013.62 1013.90 1014.30 1014.74 1015.06 1015.38 1015.70 1016.06 1016.30 1016.38 1016.78 1017.02 1017.26 1017.58 1017.90 1018.10 1018.42 1018.58 1018.94 1019.50 1019.50 1019.58 1019.62 1019.70 1019.70 1019.66 1019.90 1020.10 1020.26 1020.26 1020.42 1020.58 1020.70 1020.86 1021.10 1021.26
1011.26 1011.74 1012.18 1012.62 1013.02 1013.38 1013.70 1014.06 1014.38 1014.74 1015.10 1015.38 1015.74 1016.02 1016.38 1016.66 1016.90 1017.18 1017.42 1017.74 1018.02 1018.22 1018.50 1018.70 1019.18 1019.94 1019.86 1019.94 1019.98 1020.02 1020.02 1019.86 1019.86 1020.06 1020.18 1020.26 1020.46 1020.62 1020.74 1020.90 1021.10 1021.34
1011.02 1011.50 1012.06 1012.54 1013.02 1013.46 1013.78 1014.10 1014.46 1014.78 1015.10 1015.34 1015.70 1016.02 1016.42 1016.74 1016.98 1017.38 1017.58 1017.90 1018.06 1018.26 1018.46 1018.78 1019.34 1020.18 1020.18 1020.22 1020.26 1020.26 1020.14 1020.06 1019.70 1019.98 1020.18 1020.34 1020.62 1020.82 1020.90 1021.02 1021.14 1021.26
1010.90 1011.30 1011.90 1012.58 1013.02 1013.38 1013.86 1014.18 1014.46 1014.82 1015.10 1015.46 1015.70 1015.94 1016.42 1016.90 1017.22 1017.46 1017.74 1017.94 1018.10 1018.30 1018.46 1018.86 1019.70 1020.38 1020.38 1020.46 1020.46 1020.50 1020.38 1020.14 1019.78 1020.22 1020.30 1020.50 1020.74 1020.82 1020.94 1021.14 1021.14 1021.26
1010.86 1011.26 1011.74 1012.26 1012.86 1013.46 1013.90 1014.26 1014.58 1014.86 1015.18 1015.38 1015.50 1015.90 1016.34 1016.82 1017.30 1017.54 1017.74 1017.90 1018.10 1018.26 1018.54 1019.10 1020.22 1020.82 1020.66 1020.66 1020.66 1020.62 1020.58 1020.02 1019.98 1020.26 1020.42 1020.62 1020.94 1021.10 1021.14 1021.22 1021.22 1021.34
1010.70 1011.14 1011.58 1011.94 1012.54 1013.18 1013.74 1014.14 1014.54 1014.90 1015.14 1015.18 1015.50 1016.02 1016.46 1016.90 1017.22 1017.54 1017.66 1017.78 1017.94 1018.10 1018.46 1019.18 1020.18 1021.02 1020.98 1020.86 1020.78 1020.74 1020.50 1019.86 1020.14 1020.18 1020.42 1020.66 1020.98 1021.14 1021.18 1021.30 1021.30 1021.30
1010.58 1011.02 1011.46 1011.74 1012.26 1012.82 1013.38 1013.94 1014.30 1014.62 1014.94 1015.02 1015.42 1016.02 1016.50 1016.86 1017.18 1017.38 1017.50 1017.62 1017.86 1018.06 1018.50 1019.10 1019.78 1020.86 1021.18 1021.02 1020.90 1020.78 1020.30 1019.94 1020.02 1020.10 1020.42 1020.66 1020.94 1021.06 1021.18 1021.46 1021.90 1022.14
1010.58 1010.94 1011.22 1011.62 1012.10 1012.58 1013.10 1013.66 1014.10 1014.46 1014.78 1014.82 1015.38 1015.90 1016.38 1016.70 1016.98 1017.14 1017.34 1017.54 1017.82 1018.34 1019.02 1019.18 1019.82 1020.82 1021.30 1021.14 1021.10 1020.90 1020.62 1019.94 1019.94 1020.14 1020.54 1020.78 1020.90 1021.18 1021.30 1021.54 1021.98 1022.26
1010.90 1011.10 1011.18 1011.54 1011.94 1012.50 1012.98 1013.46 1013.94 1014.34 1014.70 1014.82 1015.30 1015.66 1016.22 1016.50 1016.74 1017.02 1017.34 1017.74 1018.38 1018.94 1019.30 1019.38 1019.82 1020.34 1021.02 1021.34 1021.18 1020.94 1020.78 1020.26 1019.86 1020.18 1020.50 1020.74 1020.82 1021.02 1021.22 1021.42 1021.62 1021.94
Thickness
5674 5673 5670 5670 5670 5671 5672 5672 5672 5670 5667 5667 5666 5665 5664 5663 5663 5664 5664 5663 5661 5660 5659 5658 5657 5656 5654 5653 5652 5652 5650 5648 5648 5648 5647 5646 5645 5645 5644 5643 5642 5642
5666 5667 5666 5666 5668 5668 5669 5669 5670 5668 5665 5663 5662 5661 5660 5659 5660 5661 5660 5659 5658 5657 5656 5655 5654 5653 5652 5651 5649 5648 5646 5645 5646 5645 5644 5644 5644 5643 5641 5640 5639 5638
5660 5661 5662 5662 5663 5663 5664 5666 5667 5666 5663 5660 5659 5658 5657 5657 5657 5658 5658 5657 5656 5654 5654 5652 5652 5651 5649 5648 5646 5644 5644 5643 5642 5642 5642 5641 5640 5640 5639 5638 5637 5635
5657 5657 5658 5657 5659 5659 5660 5662 5663 5663 5659 5656 5655 5654 5652 5652 5654 5655 5655 5654 5653 5652 5652 5650 5649 5648 5646 5644 5643 5642 5641 5641 5640 5639 5640 5639 5638 5637 5636 5635 5634 5632
5656 5656 5655 5653 5655 5656 5658 5659 5661 5660 5655 5651 5651 5649 5647 5647 5650 5653 5652 5651 5650 5650 5649 5647 5645 5644 5643 5642 5640 5640 5639 5638 5638 5638 5637 5636 5636 5635 5633 5632 5631 5630
5657 5656 5654 5652 5652 5653 5654 5656 5657 5656 5651 5648 5646 5645 5646 5645 5648 5652 5650 5649 5650 5648 5646 5644 5642 5641 5640 5639 5638 5637 5636 5635 5635 5636 5635 5634 5633 5632 5631 5629 5628 5627
5657 5654 5653 5652 5651 5651 5650 5651 5652 5652 5649 5646 5643 5643 5645 5643 5645 5650 5650 5648 5649 5646 5644 5641 5640 5639 5638 5637 5636 5634 5634 5633 5633 5633 5632 5632 5631 5629 5628 5627 5626 5625
5659 5654 5652 5651 5651 5650 5649 5646 5647 5648 5647 5644 5640 5641 5643 5640 5642 5647 5648 5646 5646 5643 5641 5639 5638 5637 5636 5635 5633 5632 5631 5630 5630 5630 5630 5629 5628 5627 5625 5624 5623 5622
5657 5654 5652 5650 5650 5649 5647 5646 5647 5647 5644 5641 5640 5640 5639 5637 5640 5646 5645 5644 5643 5640 5638 5636 5636 5635 5633 5633 5631 5630 5630 5628 5628 5628 5626 5626 5626 5624 5623 5622 5620 5618
5653 5653 5652 5650 5649 5647 5644 5645 5648 5647 5643 5640 5640 5640 5636 5634 5639 5644 5642 5641 5640 5637 5635 5634 5633 5632 5630 5631 5630 5629 5628 5626 5626 5625 5624 5624 5623 5621 5620 5619 5617 5615
5652 5651 5651 5649 5647 5644 5643 5643 5644 5642 5640 5639 5639 5638 5634 5632 5637 5641 5639 5638 5637 5634 5632 5632 5631 5630 5629 5629 5629 5628 5626 5625 5624 5623 5621 5621 5619 5618 5618 5616 5614 5612
5652 5651 5650 5648 5645 5642 5640 5640 5639 5637 5635 5634 5634 5633 5630 5630 5635 5637 5636 5636 5634 5631 5630 5629 5628 5629 5629 5628 5626 5625 5623 5622 5622 5620 5618 5618 5617 5615 5614 5613 5611 5609
5652 5651 5650 5647 5643 5641 5640 5640 5639 5637 5635 5631 5629 5628 5627 5629 5633 5634 5633 5633 5631 5628 5627 5627 5627 5627 5626 5625 5624 5622 5621 5619 5618 5617 5616 5615 5614 5612 5610 5609 5608 5606
5651 5650 5648 5645 5642 5642 5642 5642 5639 5637 5635 5630 5626 5627 5628 5629 5631 5630 5629 5628 5626 5625 5624 5624 5624 5623 5623 5623 5622 5620 5618 5617 5616 5615 5614 5612 5610 5609 5608 5606 5604 5602
5651 5648 5646 5642 5642 5642 5642 5640 5638 5635 5632 5628 5627 5627 5628 5628 5629 5628 5626 5624 5622 5622 5621 5621 5621 5621 5621 5621 5620 5618 5616 5615 5614 5612 5610 5609 5606 5606 5605 5603 5601 5598
5650 5647 5644 5642 5642 5641 5640 5639 5637 5634 5631 5629 5628 5628 5627 5627 5627 5625 5623 5621 5619 5618 5617 5617 5618 5618 5617 5617 5617 5616 5614 5612 5611 5609 5608 5606 5605 5603 5601 5600 5597 5593
5649 5646 5643 5642 5641 5640 5640 5639 5637 5634 5632 5630 5629 5627 5626 5626 5624 5623 5622 5620 5617 5615 5615 5615 5614 5613 5612 5611 5612 5612 5611 5610 5608 5606 5606 5604 5603 5601 5599 5597 5594 5591
5650 5647 5644 5642 5641 5640 5639 5638 5636 5634 5632 5630 5628 5626 5624 5623 5622 5620 5619 5617 5615 5613 5612 5612 5610 5607 5607 5607 5607 5607 5607 5607 5606 5604 5603 5602 5601 5599 5597 5595 5592 5589
5652 5649 5646 5643 5641 5639 5638 5637 5635 5633 5631 5629 5627 5624 5622 5621 5619 5618 5616 5614 5612 5611 5609 5609 5606 5602 5602 5603 5603 5603 5603 5604 5604 5602 5601 5600 5598 5596 5594 5593 5590 5587
5653 5650 5646 5642 5639 5637 5635 5633 5632 5630 5629 5627 5625 5622 5620 5617 5615 5615 5613 5611 5610 5608 5607 5607 5602 5599 5599 5599 5599 5599 5599 5601 5601 5599 5597 5596 5594 5592 5591 5589 5587 5585
5653 5650 5645 5641 5638 5635 5632 5630 5628 5628 5625 5624 5622 5620 5617 5614 5613 5611 5610 5608 5607 5606 5605 5603 5598 5595 5595 5595 5595 5595 5595 5597 5597 5595 5593 5592 5590 5588 5587 5585 5583 5582
5652 5649 5645 5641 5637 5632 5629 5627 5625 5624 5622 5621 5621 5619 5616 5613 5610 5608 5608 5607 5606 5605 5603 5599 5594 5591 5591 5591 5591 5590 5591 5594 5594 5591 5590 5589 5586 5584 5582 5581 5580 5578
5650 5647 5644 5641 5637 5632 5628 5625 5623 5621 5620 5620 5619 5616 5613 5610 5608 5607 5606 5605 5605 5604 5602 5597 5591 5587 5587 5587 5588 5587 5589 5591 5591 5589 5588 5586 5582 5581 5579 5577 5575 5574
5647 5645 5642 5640 5637 5632 5628 5624 5622 5619 5619 5619 5617 5613 5610 5608 5606 5606 5605 5604 5604 5601 5598 5595 5590 5585 5583 5584 5584 5584 5586 5589 5589 5587 5585 5582 5579 5578 5576 5573 5570 5568
5644 5642 5641 5639 5636 5631 5627 5623 5620 5619 5618 5618 5615 5611 5608 5606 5605 5604 5603 5602 5600 5595 5593 5592 5588 5583 5580 5580 5580 5581 5583 5586 5586 5584 5581 5579 5577 5575 5572 5569 5566 5563
5639 5638 5637 5635 5632 5629 5625 5622 5620 5617 5616 5616 5613 5609 5607 5605 5603 5602 5600 5596 5593 5590 5587 5587 5585 5581 5578 5577 5577 5577 5578 5581 5583 5581 5578 5576 5574 5571 5570 5567 5564 5562